Regional Weather Roundup
Issued by NWS

Home | Current Version | Previous Version | Text Only | Print | Product List | Glossary Off
Versions: 1 2 3 4 5 6 7 8 9 10 11 12 13 14 15 16 17 18 19 20 21 22 23 24 25 26 27 28 29 30 31 32 33 34 35 36 37 38 39 40 41 42 43 44 45 46 47 48 49 50

000
ASUS45 KCYS 261810
RWRWY

WYOMING REGIONAL WEATHER ROUNDUP
NATIONAL WEATHER SERVICE CHEYENNE WY
1200 PM MDT TUE MAY 26 2015

NOTE:  "FAIR" INDICATES FEW OR NO CLOUDS BELOW 12,000 FEET
WITH NO SIGNIFICANT WEATHER AND/OR OBSTRUCTIONS TO VISIBILITY.

WYZ001-261900-
YELLOWSTONE NATIONAL PARK

CITY           SKY/WX    TMP DP  RH WIND       PRES   REMARKS
LK YELLOWSTONE   N/A     48  39  71 VRB5      30.11F
6HR MIN TEMP:  37; 6HR MAX TEMP:  49;

W YELLOWSTONE  NOT AVBL

$$
WYZ002>013-054>058-071-098>099-261900-
NORTHERN WYOMING

CITY           SKY/WX    TMP DP  RH WIND       PRES   REMARKS
JACKSON        PTSUNNY   57  45  62 S12G18    30.06F
CODY           FAIR      61  43  51 NW6       29.97F
GREYBULL       FAIR      68  43  40 SE5       29.93F
6HR MIN TEMP:  46; 6HR MAX TEMP:  69;

WORLAND        FAIR      66  50  56 N5        29.95F
6HR MIN TEMP:  43; 6HR MAX TEMP:  66;

SHERIDAN       FAIR      68  46  45 CALM      29.94F
6HR MIN TEMP:  38; 6HR MAX TEMP:  68;

BUFFALO        FAIR      62  49  62 VRB5      29.98F
6HR MIN TEMP:  45; 6HR MAX TEMP:  62;

GILLETTE       PTSUNNY   65  50  58 S10       29.96F
6HR MIN TEMP:  39; 6HR MAX TEMP:  66;

HULETT         FAIR      64  50  59 SW10      30.00S
NEWCASTLE      CLOUDY    61  48  63 S10       30.02S

$$
WYZ014>020-022>026-101>103-261900-
CENTRAL WYOMING

CITY           SKY/WX    TMP DP  RH WIND       PRES   REMARKS
BIG PINEY      PTSUNNY   54  38  54 VRB5      30.09F
6HR MIN TEMP:  35; 6HR MAX TEMP:  56;

PINEDALE       CLOUDY    54  37  54 CALM      30.09F
DUBOIS         CLOUDY    54  36  50 SW21      30.05F
LANDER         PTSUNNY   63  45  51 E8        29.99S
6HR MIN TEMP:  42; 6HR MAX TEMP:  64;

RIVERTON       NOT AVBL
CASPER         FAIR      65  46  50 S14       30.01S
6HR MIN TEMP:  42; 6HR MAX TEMP:  65;

DOUGLAS        FAIR      65  45  48 VRB3      30.01S
6HR MIN TEMP:  39; 6HR MAX TEMP:  65;


$$
WYZ021-027>030-104>119-261900-
SOUTHERN WYOMING

CITY           SKY/WX    TMP DP  RH WIND       PRES   REMARKS
EVANSTON       CLOUDY    52  44  74 W6        30.11F
6HR MIN TEMP:  41; 6HR MAX TEMP:  52; 6HR PCP:  0.04;

KEMMERER       MOCLDY    54  41  62 S10       30.12S
FORT BRIDGER   CLOUDY    52  46  82 W8        30.14F
ROCK SPRINGS   FAIR      57  41  55 W9        30.09F
6HR MIN TEMP:  41; 6HR MAX TEMP:  57;

DIXON          MOCLDY    60  44  55 W6        30.12F
RAWLINS        FAIR      59  41  51 SW17      30.09S
6HR MIN TEMP:  43; 6HR MAX TEMP:  59;

SARATOGA       MOCLDY    61  37  41 MISG      30.10F
LARAMIE        FAIR      58  36  43 N6        30.09S
6HR MIN TEMP:  38; 6HR MAX TEMP:  59; 6HR PCP: TRACE;

CHEYENNE       FAIR      57  46  66 S7        30.06S
6HR MIN TEMP:  43; 6HR MAX TEMP:  62; 6HR PCP: TRACE;

TORRINGTON     FAIR      63  49  60 S6        30.00F
6HR MIN TEMP:  43; 6HR MAX TEMP:  64;

PINE BLUFFS    CLOUDY    59  45  58 SE5       30.05S

$$



USA.gov is the U.S. government's official web portal to all federal, state and local government web resources and services.